Time,TemperatureF,DewpointF,PressureIn,WindDirection,WindDirectionDegrees,WindSpeedMPH,WindSpeedGustMPH,Humidity,HourlyPrecipIn,Conditions,Clouds,dailyrainin,SolarRadiationWatts/m^2,SoftwareType,DateUTC
2013-04-20 00:07:00,47.8,44.0,30.19,NNW,333,0.0,0.0,87,0.02,,,0.00,0,weatherlink.com 1.10,2013-04-19 22:07:00,
2013-04-20 00:22:00,47.4,44.0,30.20,NNW,333,0.0,0.0,89,0.03,,,0.02,0,weatherlink.com 1.10,2013-04-19 22:22:00,
2013-04-20 00:37:00,47.3,45.0,30.20,NW,321,0.0,0.0,90,0.03,,,0.02,0,weatherlink.com 1.10,2013-04-19 22:37:00,
2013-04-20 00:52:00,47.2,45.0,30.21,NW,317,0.0,0.0,91,0.02,,,0.02,0,weatherlink.com 1.10,2013-04-19 22:52:00,
2013-04-20 01:07:00,47.1,45.0,30.21,NNW,343,0.0,1.0,91,0.02,,,0.02,0,weatherlink.com 1.10,2013-04-19 23:07:00,
2013-04-20 01:22:00,46.9,45.0,30.21,North,9,0.0,0.0,91,0.00,,,0.02,0,weatherlink.com 1.10,2013-04-19 23:22:00,
2013-04-20 01:37:00,46.7,44.0,30.21,NNE,19,0.0,1.0,91,0.02,,,0.03,0,weatherlink.com 1.10,2013-04-19 23:37:00,
2013-04-20 01:52:00,46.2,44.0,30.21,NNE,31,0.0,1.0,90,0.02,,,0.04,0,weatherlink.com 1.10,2013-04-19 23:52:00,
2013-04-20 02:07:00,45.8,43.0,30.21,NNW,344,0.0,1.0,91,0.03,,,0.05,0,weatherlink.com 1.10,2013-04-20 00:07:00,
2013-04-20 02:22:00,45.8,44.0,30.21,NNW,347,0.0,1.0,92,0.03,,,0.05,0,weatherlink.com 1.10,2013-04-20 00:22:00,
2013-04-20 02:37:00,45.6,43.0,30.22,NNW,345,0.0,1.0,91,0.02,,,0.05,0,weatherlink.com 1.10,2013-04-20 00:37:00,
2013-04-20 02:52:00,45.4,43.0,30.23,NNW,336,0.0,1.0,90,0.01,,,0.05,0,weatherlink.com 1.10,2013-04-20 00:52:00,
2013-04-20 03:07:00,45.2,42.0,30.23,NNW,335,0.0,0.0,89,0.00,,,0.05,0,weatherlink.com 1.10,2013-04-20 01:07:00,
2013-04-20 03:22:00,45.1,42.0,30.23,NW,319,0.0,1.0,88,0.00,,,0.05,0,weatherlink.com 1.10,2013-04-20 01:22:00,
2013-04-20 03:37:00,44.9,42.0,30.23,NNW,331,0.0,0.0,88,0.00,,,0.05,0,weatherlink.com 1.10,2013-04-20 01:37:00,
2013-04-20 03:52:00,44.7,41.0,30.23,NNW,336,0.0,1.0,88,0.00,,,0.05,0,weatherlink.com 1.10,2013-04-20 01:52:00,
2013-04-20 04:07:00,44.5,41.0,30.23,NNW,336,0.0,0.0,88,0.00,,,0.05,0,weatherlink.com 1.10,2013-04-20 02:07:00,
2013-04-20 04:23:00,44.3,41.0,30.23,NNW,336,0.0,0.0,89,0.01,,,0.06,0,weatherlink.com 1.10,2013-04-20 02:23:00,
2013-04-20 04:38:00,44.1,42.0,30.23,NNW,336,0.0,0.0,91,0.02,,,0.07,0,weatherlink.com 1.10,2013-04-20 02:38:00,
2013-04-20 04:53:00,43.8,42.0,30.23,NE,46,0.0,1.0,92,0.03,,,0.08,0,weatherlink.com 1.10,2013-04-20 02:53:00,
2013-04-20 05:08:00,43.7,42.0,30.23,ENE,58,0.0,0.0,93,0.03,,,0.08,0,weatherlink.com 1.10,2013-04-20 03:08:00,
2013-04-20 05:23:00,43.6,42.0,30.23,ENE,58,0.0,0.0,93,0.02,,,0.09,0,weatherlink.com 1.10,2013-04-20 03:23:00,
2013-04-20 05:38:00,43.6,42.0,30.23,ENE,58,0.0,0.0,93,0.02,,,0.09,0,weatherlink.com 1.10,2013-04-20 03:38:00,
2013-04-20 05:53:00,43.6,42.0,30.23,NE,42,0.0,2.0,92,0.01,,,0.09,0,weatherlink.com 1.10,2013-04-20 03:53:00,
2013-04-20 06:08:00,43.6,42.0,30.24,ENE,58,0.0,1.0,92,0.02,,,0.09,0,weatherlink.com 1.10,2013-04-20 04:08:00,
2013-04-20 06:23:00,43.7,42.0,30.24,NNE,24,0.0,0.0,92,0.01,,,0.09,0,weatherlink.com 1.10,2013-04-20 04:23:00,
2013-04-20 06:38:00,43.7,42.0,30.24,NNE,24,0.0,0.0,92,0.01,,,0.09,7,weatherlink.com 1.10,2013-04-20 04:38:00,
2013-04-20 06:53:00,43.7,42.0,30.24,NNE,24,0.0,0.0,93,0.01,,,0.09,11,weatherlink.com 1.10,2013-04-20 04:53:00,
2013-04-20 07:08:00,43.9,42.0,30.25,NNE,28,0.0,0.0,93,0.00,,,0.09,18,weatherlink.com 1.10,2013-04-20 05:08:00,
2013-04-20 07:23:00,44.1,43.0,30.25,NNE,28,0.0,0.0,94,0.00,,,0.09,33,weatherlink.com 1.10,2013-04-20 05:23:00,
2013-04-20 07:38:00,44.5,42.0,30.25,NNE,28,0.0,0.0,92,0.00,,,0.09,40,weatherlink.com 1.10,2013-04-20 05:38:00,
2013-04-20 07:53:00,44.9,43.0,30.26,NNE,28,0.0,0.0,91,0.00,,,0.09,49,weatherlink.com 1.10,2013-04-20 05:53:00,
2013-04-20 08:08:00,45.3,43.0,30.25,NNE,28,0.0,0.0,91,0.00,,,0.09,56,weatherlink.com 1.10,2013-04-20 06:08:00,
2013-04-20 08:23:00,45.7,43.0,30.26,NNE,28,0.0,0.0,90,0.00,,,0.09,51,weatherlink.com 1.10,2013-04-20 06:23:00,
2013-04-20 08:38:00,45.9,43.0,30.26,NNE,28,0.0,0.0,88,0.00,,,0.09,63,weatherlink.com 1.10,2013-04-20 06:38:00,
2013-04-20 08:53:00,46.1,43.0,30.26,NNE,28,0.0,0.0,87,0.00,,,0.09,79,weatherlink.com 1.10,2013-04-20 06:53:00,
2013-04-20 09:08:00,46.4,43.0,30.26,NNE,28,0.0,0.0,88,0.00,,,0.09,91,weatherlink.com 1.10,2013-04-20 07:08:00,
2013-04-20 09:23:00,46.7,43.0,30.27,NNE,28,0.0,0.0,88,0.00,,,0.09,79,weatherlink.com 1.10,2013-04-20 07:23:00,
2013-04-20 09:38:00,46.7,43.0,30.27,NNE,14,0.0,1.0,86,0.00,,,0.09,104,weatherlink.com 1.10,2013-04-20 07:38:00,
2013-04-20 09:53:00,47.0,44.0,30.27,NNE,17,0.0,0.0,88,0.00,,,0.09,183,weatherlink.com 1.10,2013-04-20 07:53:00,
2013-04-20 10:08:00,47.9,44.0,30.27,NNE,19,0.0,1.0,86,0.00,,,0.09,176,weatherlink.com 1.10,2013-04-20 08:08:00,
2013-04-20 10:23:00,48.3,44.0,30.27,NNE,19,0.0,1.0,86,0.00,,,0.09,155,weatherlink.com 1.10,2013-04-20 08:23:00,
2013-04-20 10:38:00,48.5,44.0,30.28,NE,49,0.0,1.0,85,0.00,,,0.09,167,weatherlink.com 1.10,2013-04-20 08:38:00,
2013-04-20 10:53:00,48.9,45.0,30.27,East,80,0.0,2.0,85,0.00,,,0.09,202,weatherlink.com 1.10,2013-04-20 08:53:00,
2013-04-20 11:08:00,49.2,45.0,30.27,NNW,334,0.0,4.0,85,0.00,,,0.09,211,weatherlink.com 1.10,2013-04-20 09:08:00,
2013-04-20 11:23:00,49.7,45.0,30.27,NE,42,0.0,3.0,83,0.00,,,0.09,220,weatherlink.com 1.10,2013-04-20 09:23:00,
2013-04-20 11:38:00,50.1,45.0,30.27,East,80,0.0,2.0,83,0.00,,,0.09,225,weatherlink.com 1.10,2013-04-20 09:38:00,
2013-04-20 11:53:00,50.3,44.0,30.27,North,360,0.0,2.0,80,0.00,,,0.09,183,weatherlink.com 1.10,2013-04-20 09:53:00,
2013-04-20 12:08:00,50.1,44.0,30.27,NE,51,0.0,0.0,80,0.00,,,0.09,181,weatherlink.com 1.10,2013-04-20 10:08:00,
2013-04-20 12:24:00,50.0,44.0,30.27,NE,54,0.0,3.0,80,0.00,,,0.09,134,weatherlink.com 1.10,2013-04-20 10:24:00,
2013-04-20 12:39:00,50.1,44.0,30.27,ENE,69,0.0,3.0,80,0.00,,,0.09,174,weatherlink.com 1.10,2013-04-20 10:39:00,
2013-04-20 12:54:00,50.3,45.0,30.27,ENE,68,0.0,2.0,81,0.00,,,0.09,181,weatherlink.com 1.10,2013-04-20 10:54:00,
2013-04-20 13:09:00,50.3,45.0,30.27,ENE,68,0.0,1.0,83,0.00,,,0.09,176,weatherlink.com 1.10,2013-04-20 11:09:00,
2013-04-20 13:24:00,50.3,45.0,30.27,NE,41,0.0,5.0,83,0.00,,,0.09,236,weatherlink.com 1.10,2013-04-20 11:24:00,
2013-04-20 13:39:00,50.4,46.0,30.27,NE,53,0.0,2.0,85,0.01,,,0.10,134,weatherlink.com 1.10,2013-04-20 11:39:00,
2013-04-20 13:54:00,50.3,46.0,30.27,NNE,32,0.0,3.0,85,0.02,,,0.11,195,weatherlink.com 1.10,2013-04-20 11:54:00,
2013-04-20 14:09:00,50.3,46.0,30.27,NNE,15,0.0,2.0,86,0.02,,,0.11,202,weatherlink.com 1.10,2013-04-20 12:09:00,
2013-04-20 14:24:00,50.4,46.0,30.26,NE,36,0.0,1.0,86,0.02,,,0.11,248,weatherlink.com 1.10,2013-04-20 12:24:00,
2013-04-20 14:39:00,50.4,46.0,30.26,NE,42,0.0,1.0,84,0.01,,,0.11,141,weatherlink.com 1.10,2013-04-20 12:39:00,
2013-04-20 14:54:00,50.7,46.0,30.26,NE,51,0.0,4.0,84,0.00,,,0.11,193,weatherlink.com 1.10,2013-04-20 12:54:00,
2013-04-20 15:09:00,51.0,46.0,30.25,NE,42,0.0,4.0,82,0.00,,,0.11,127,weatherlink.com 1.10,2013-04-20 13:09:00,
2013-04-20 15:24:00,50.9,45.0,30.25,NE,49,0.0,4.0,80,0.00,,,0.11,162,weatherlink.com 1.10,2013-04-20 13:24:00,
2013-04-20 15:39:00,50.7,45.0,30.24,ENE,71,0.0,4.0,80,0.00,,,0.11,111,weatherlink.com 1.10,2013-04-20 13:39:00,
2013-04-20 15:54:00,50.6,45.0,30.25,ENE,61,0.0,2.0,81,0.00,,,0.11,62,weatherlink.com 1.10,2013-04-20 13:54:00,
2013-04-20 16:09:00,50.2,45.0,30.25,NNE,32,2.0,6.0,81,0.00,,,0.11,56,weatherlink.com 1.10,2013-04-20 14:09:00,
2013-04-20 16:24:00,50.4,44.0,30.24,NE,34,0.0,8.0,80,0.00,,,0.11,107,weatherlink.com 1.10,2013-04-20 14:24:00,
2013-04-20 16:39:00,50.6,44.0,30.24,East,88,0.0,5.0,78,0.00,,,0.11,114,weatherlink.com 1.10,2013-04-20 14:39:00,
2013-04-20 16:54:00,51.0,44.0,30.24,NW,319,0.0,4.0,77,0.00,,,0.11,141,weatherlink.com 1.10,2013-04-20 14:54:00,
2013-04-20 17:09:00,51.4,44.0,30.23,NE,43,0.0,3.0,75,0.00,,,0.11,123,weatherlink.com 1.10,2013-04-20 15:09:00,
2013-04-20 17:24:00,51.3,43.0,30.24,NE,48,2.0,9.0,72,0.00,,,0.11,102,weatherlink.com 1.10,2013-04-20 15:24:00,
2013-04-20 17:39:00,50.8,42.0,30.24,NE,44,7.0,11.0,71,0.00,,,0.11,74,weatherlink.com 1.10,2013-04-20 15:39:00,
2013-04-20 17:54:00,50.5,43.0,30.23,ENE,59,2.0,9.0,74,0.00,,,0.11,83,weatherlink.com 1.10,2013-04-20 15:54:00,
2013-04-20 18:09:00,50.4,42.0,30.23,East,79,1.0,9.0,73,0.00,,,0.11,84,weatherlink.com 1.10,2013-04-20 16:09:00,
2013-04-20 18:24:00,50.4,42.0,30.23,SE,138,1.0,8.0,72,0.00,,,0.11,79,weatherlink.com 1.10,2013-04-20 16:24:00,
2013-04-20 18:39:00,50.3,42.0,30.23,NE,40,6.0,8.0,74,0.00,,,0.11,63,weatherlink.com 1.10,2013-04-20 16:39:00,
2013-04-20 18:54:00,50.0,42.0,30.22,ENE,63,4.0,8.0,74,0.00,,,0.11,42,weatherlink.com 1.10,2013-04-20 16:54:00,
2013-04-20 19:09:00,49.8,42.0,30.22,NE,40,2.0,7.0,74,0.00,,,0.11,33,weatherlink.com 1.10,2013-04-20 17:09:00,
2013-04-20 19:24:00,49.6,42.0,30.22,NE,44,3.0,3.0,76,0.00,,,0.11,21,weatherlink.com 1.10,2013-04-20 17:24:00,
2013-04-20 19:39:00,49.2,42.0,30.22,ENE,68,0.0,5.0,76,0.00,,,0.11,11,weatherlink.com 1.10,2013-04-20 17:39:00,
2013-04-20 19:54:00,48.9,42.0,30.23,NNE,31,0.0,3.0,77,0.00,,,0.11,0,weatherlink.com 1.10,2013-04-20 17:54:00,
2013-04-20 20:09:00,48.6,42.0,30.22,East,85,0.0,2.0,77,0.00,,,0.11,0,weatherlink.com 1.10,2013-04-20 18:09:00,
2013-04-20 20:24:00,48.1,42.0,30.23,ENE,71,0.0,1.0,79,0.00,,,0.11,0,weatherlink.com 1.10,2013-04-20 18:24:00,
2013-04-20 20:39:00,47.4,42.0,30.23,ENE,67,0.0,1.0,81,0.00,,,0.11,0,weatherlink.com 1.10,2013-04-20 18:39:00,
2013-04-20 20:54:00,46.5,41.0,30.23,NE,44,2.0,2.0,82,0.00,,,0.11,0,weatherlink.com 1.10,2013-04-20 18:54:00,
2013-04-20 21:09:00,45.8,41.0,30.24,NE,55,0.0,1.0,83,0.00,,,0.11,0,weatherlink.com 1.10,2013-04-20 19:09:00,
2013-04-20 21:24:00,45.3,40.0,30.24,NE,36,0.0,2.0,83,0.00,,,0.11,0,weatherlink.com 1.10,2013-04-20 19:24:00,
2013-04-20 21:39:00,45.1,41.0,30.24,NE,45,2.0,2.0,84,0.00,,,0.11,0,weatherlink.com 1.10,2013-04-20 19:39:00,
2013-04-20 21:54:00,44.7,40.0,30.24,East,82,0.0,2.0,84,0.00,,,0.11,0,weatherlink.com 1.10,2013-04-20 19:54:00,
2013-04-20 22:09:00,44.2,40.0,30.24,NE,51,0.0,1.0,85,0.00,,,0.11,0,weatherlink.com 1.10,2013-04-20 20:09:00,
2013-04-20 22:24:00,43.6,40.0,30.24,NE,51,0.0,1.0,86,0.00,,,0.11,0,weatherlink.com 1.10,2013-04-20 20:24:00,
2013-04-20 22:39:00,43.2,40.0,30.24,NE,51,0.0,0.0,87,0.00,,,0.11,0,weatherlink.com 1.10,2013-04-20 20:39:00,
2013-04-20 22:54:00,43.2,40.0,30.24,NE,51,0.0,1.0,89,0.00,,,0.11,0,weatherlink.com 1.10,2013-04-20 20:54:00,
2013-04-20 23:09:00,43.6,41.0,30.24,NE,51,0.0,1.0,90,0.00,,,0.11,0,weatherlink.com 1.10,2013-04-20 21:09:00,
2013-04-20 23:24:00,44.2,41.0,30.24,NE,51,0.0,1.0,88,0.00,,,0.11,0,weatherlink.com 1.10,2013-04-20 21:24:00,
2013-04-20 23:39:00,44.7,41.0,30.23,NE,41,0.0,1.0,87,0.00,,,0.11,0,weatherlink.com 1.10,2013-04-20 21:39:00,
2013-04-20 23:54:00,45.2,41.0,30.23,NE,51,3.0,3.0,85,0.00,,,0.11,0,weatherlink.com 1.10,2013-04-20 21:54:00,